SL-3 R/B

Last updated on Sun Aug 31 2025 00:02:14 GMT+0000 (Coordinated Universal Time)

1 19046U 88032B 25242.11195656 .00005768 00000+0 29136-3 0 9999 2 19046 97.4951 221.7516 0027775 176.7196 183.4225 15.17136597 23034
UTC large
Height (km)
Speed (km/s)
/
Latitude / Longitude
Inclination (degrees)
Orbital Period (minutes)
Azimuth
Elevation
Range (km)
Doppler Factor

Next 0 passes for location: London (51.5072 / 0.1276)

Sorry there are no passes over London.